Location: Dürabuch
(48.2640°N, 11.2185°E)
Time: 21:13:18
(UTC+00:00)

USA 267 - Pass Details

Date: 23 May 2024
Orbit: 1100 x 1107 km, 123.0° (Epoch: 21 May)

Event Time Altitude Azimuth Distance (km) Brightness Sun altitude
Rises 01:57:48 0° 67° (ENE) 3,921 7.4 -11.7°
Reaches altitude 10° 02:00:24 10° 61° (ENE) 2,962 6.7 -11.5°
Maximum altitude 02:06:28 43° 353° (N) 1,508 4.4 -10.8°
Drops below altitude 10° 02:12:32 10° 285° (WNW) 2,960 5.3 -10.1°
Sets 02:15:08 0° 279° (W) 3,918 5.8 -9.8°
